Location: Hylvaty SDH
(49.9612°N, 16.4057°E)
Time: 19:40:12
(UTC+02:00)

Transit 4A - Pass Details

Date: 09 August 2020
Orbit: 862 x 982 km, 66.8° (Epoch: 28 September)

Event Time Altitude Azimuth Distance (km) Brightness Sun altitude
Rises 16:14:39 0° 317° (NW) 3,612 11.2 37.9°
Reaches altitude 10° 16:17:48 10° 332° (NNW) 2,686 10.5 37.5°
Maximum altitude 16:22:37 22° 23° (NNE) 1,966 9.5 36.8°
Drops below altitude 10° 16:27:29 10° 73° (ENE) 2,727 9.9 36.0°
Sets 16:30:43 0° 88° (E) 3,681 10.5 35.5°
